Tracking 17884 objects as of 3-December-2016
HD Live streaming from Space Station
objects crossing your sky now

COSMOS 2128

Track COSMOS 2128 now!
10-day predictions
COSMOS 2128 is classified as:


NORAD ID: 21103
Int'l Code: 1991-009D
Perigee: 1,451.7 km
Apogee: 1,476.0 km
Inclination: 74.0 °
Period: 115.0 minutes
Semi major axis: 7834 km
RCS: 0.6873 m2 (medium)
Launch date: February 12, 1991
Source: Commonwealth of Independent States (former USSR) (CIS)
Launch site: PLESETSK MISSILE AND SPACE COMPLEX (PKMTR)
Your satellite tracking list
Your tracking list is empty





NASA's NSSDC Master Catalog

Two Line Element Set (TLE):
1 21103U 91009D   16338.44428066 -.00000010  00000-0  38153-4 0  9997
2 21103  74.0293 222.4444 0015507 289.6376  70.3002 12.51873270179572
Source of the keplerian elements: AFSPC